Regional Weather Roundup
Issued by NWS

Home | Current Version | Previous Version | Graphics & Text | Print | Product List | Glossary On
Versions: 1 2 3 4 5 6 7 8 9 10 11 12 13 14 15 16 17 18 19 20 21 22 23 24 25 26 27 28 29 30 31 32 33 34 35 36 37 38 39 40 41 42 43 44 45 46 47 48 49 50
752
ASUS45 KSLC 200810
RWRUT

UTAH REGIONAL WEATHER ROUNDUP
NATIONAL WEATHER SERVICE SALT LAKE CITY UT
100 AM MST SAT JAN 20 2018

UTZ001>011-023>025-200900-

NORTHERN UTAH

CITY           SKY/WX    TMP DP  RH WIND       PRES   REMARKS
BRIGHAM CITY   CLOUDY    32  29  90 N6        29.95F WCI  26
HILL AFB       CLOUDY    28  28 100 NW7       29.89F BLWGSNOWWCI  21
LOGAN          CLOUDY    34  29  82 E5        29.94S WCI  30
OGDEN          LGT SNOW  31  29  92 N7        29.91F FOG     WCI  24
SALT LAKE CITY LGT SNOW  33  31  92 NW13      29.91F FOG     WCI  24
TOOELE VALLEY  LGT SNOW  32  32 100 N3        29.94F
WENDOVER       LGT SNOW  29  28  96 CALM      29.97F FOG
HEBER CITY     LGT SNOW  30  28  93 E5        29.85F WCI  25
WEST JORDAN    CLOUDY    29  29 100 NW14G20   29.91F WCI  19

$$

UTZ011>015-024>027-200900-

CENTRAL/NORTHEAST UTAH

CITY           SKY/WX    TMP DP  RH WIND       PRES   REMARKS
PROVO AIRPORT  LGT SNOW  32  30  92 NW16      29.89F FOG     WCI  21
MOAB/CANYONLAN CLOUDY    35  24  64 CALM      29.79F
DELTA          CLOUDY    32  30  93 N12       29.87F VSB 1   WCI  23
PRICE          PTCLDY    28  21  75 CALM      29.79F
RICHFIELD      PTCLDY    34  30  86 N12       29.82F WCI  25
ROOSEVELT      PTCLDY    25  19  80 CALM      29.82F
VERNAL         MOCLDY    30  20  66 W7        29.79F WCI  23

$$

UTZ013>016-019>022-027-200900-

SOUTHERN UTAH

CITY           SKY/WX    TMP DP  RH WIND       PRES   REMARKS
BRYCE CANYON   CLOUDY    37  27  67 S8        29.86F WCI  31
CEDAR CITY     CLOUDY    47  28  47 S17G23    29.78F
MILFORD        CLOUDY    33  28  81 N18       29.84F WCI  22
ST GEORGE      PTSUNNY   55  33  43 SE13      29.76F
HANKSVILLE     MOCLDY    36  21  55 CALM      29.82F
KANAB          CLOUDY    46  27  46 SW3       29.88F
BLANDING         N/A     36  18  47 E5        29.97F WCI  32

$$

REGIONAL REPORTS     COLORADO/ARIZONA

CITY           SKY/WX    TMP DP  RH WIND       PRES   REMARKS
CRAIG, CO      MOCLDY    28  22  78 SE5       29.81F WCI  23
GRAND JUNCTION PTCLDY    28  21  75 CALM      29.80F
RIFLE, CO      PTCLDY    28  22  78 CALM      29.82F
MONTROSE, CO   MOCLDY    53  20  27 VRB5G18   29.84F
CORTEZ, CO     PTCLDY    26  20  77 NE3       29.93F
COLORADO CITY  CLOUDY    45  32  61 SE6       29.86F
PAGE, AZ       MOCLDY    52  24  33 SW7       29.82F
GRAND CANYON   CLOUDY    40  22  48 S9        29.91F WCI  34
KINGMAN, AZ    CLOUDY    56  30  37 S13       29.82F
FLAGSTAFF, AZ  CLEAR     28  17  63 CALM      29.94F

$$

REGIONAL REPORTS    NEVADA/IDAHO/WYOMING

CITY           SKY/WX    TMP DP  RH WIND       PRES   REMARKS
LAS VEGAS, NV  CLOUDY    58  40  51 S8        29.74F
ELY, NY        SNOW      24  23  96 N17       29.88F VSB 1/2 WCI  11
ELKO, NV       CLOUDY    28  24  85 NE3       29.94S
POCATELLO, ID  CLOUDY    32  25  75 SW16      29.94S WCI  21
BURLEY, ID     CLOUDY    33  24  69 SW13G18   29.94F WCI  24
EVANSTON, WY   CLOUDY    22  21  96 NE5       29.86F FOG     WCI  16
ROCK SPRINGS,  CLOUDY    25  21  85 W9        29.85F WCI  15

$$




USA.gov is the U.S. government's official web portal to all federal, state and local government web resources and services.